Hourly Data Report for August 06, 2000

SHERBROOKE A
QUEBEC

45°26'00.000" N
71°41'00.000" W
241.40 m
7028124
71610
YSC

Download Data

Hourly Data (August 2000)
Hourly Data Report for August 6, 2000
TIME
LST
Temp Definition
°C
Dew Point Definition
°C
Rel Hum Definition
%
Precip. Amount Definition
mm

Wind Dir Definition
10's deg

Wind Spd Definition
km/h
Visibility Definition
km
Stn Press Definition
kPa
Hmdx Definition


Wind Chill Definition


Weather Definition


00:00 10.0 9.7 98   8 4 15.0 98.65      
01:00 8.4 8.1 98   9 4 5.6 98.69      
02:00 8.7 8.5 99   9 4 15.0 98.69      
03:00 9.2 8.9 98   8 6 15.0 98.62      
04:00 6.8 6.8 100   9 4 1.3 98.65      
05:00 6.7 6.6 99     0 0.5 98.72      
06:00 9.3 9.2 99     0 15.0 98.79      
07:00 12.8 11.1 89     0 24.1 98.79     Mostly Cloudy
08:00 17.1 11.9 71   20 7 24.1 98.79     Mostly Cloudy
09:00 20.2 12.6 62   19 9 24.1 98.79     Mainly Clear
10:00 23.2 12.1 50   23 9 24.1 98.72 26   Mostly Cloudy
11:00 23.6 10.8 44   24 13 24.1 98.69 25   Mostly Cloudy
12:00 24.8 11.5 43   18 11 24.1 98.62 27   Mostly Cloudy
13:00 23.9 11.1 45   18 6 24.1 98.59 26   Mostly Cloudy
14:00 24.0 10.8 43   12 4 24.1 98.55 26   Cloudy
15:00 23.5 11.5 47   19 9 24.1 98.52 26   Cloudy
16:00 23.4 11.6 47   21 7 24.1 98.55 25   Cloudy
17:00 22.2 13.6 58   13 6 15.0 98.45 25    
18:00 21.5 15.5 69   13 7 15.0 98.42 26    
19:00 19.8 15.1 74   14 7 15.0 98.39      
20:00 19.3 15.2 77   14 7 15.0 98.42     Rain
21:00 19.5 13.8 70   17 9 15.0 98.42      
22:00 18.6 14.5 77   14 4 15.0 98.42      
23:00 18.0 13.4 74   18 15 15.0 98.39     Rain

Notes on Data Quality.

Legend

  • E = Estimated
  • M = Missing
  • NA = Not Available*
  • [empty] = Indicates an unobserved value
Date modified: